FW3685 Weather Reports


Display with metric or nautical units.
time (UTC)temp
F
wind
direction
speed
MPH
gust
MPH
rain 1hr
in
rain 24hr
in
rain mn
in
humidity
%
barometer
mb
20210616012702 70 17 2.0 6.0 0.00 0.00 0.00 58 1015.6
20210616012200 70 42 2.0 5.0 0.00 0.00 0.00 58 1015.5
20210616011658 70 11 2.0 6.0 0.00 0.00 0.00 58 1015.5
20210616011155 70 52 3.0 6.0 0.00 0.00 0.00 57 1015.5
20210616010656 71 355 2.0 5.0 0.00 0.00 0.00 58 1015.5
20210616010155 71 49 2.0 7.0 0.00 0.00 0.00 58 1015.4
20210616005653 71 350 2.0 7.0 0.00 0.00 0.00 57 1015.4
20210616005149 71 11 2.0 6.0 0.00 0.00 0.00 56 1015.3
20210616004643 72 96 4.0 6.0 0.00 0.00 0.00 56 1015.4
20210616004143 72 1 2.0 9.0 0.00 0.00 0.00 58 1015.3
20210616003645 72 34 3.0 13.0 0.00 0.00 0.00 57 1015.3
20210616003142 73 20 4.0 13.0 0.00 0.00 0.00 57 1015.3
20210616002639 73 66 5.0 9.0 0.00 0.00 0.00 56 1015.4
20210616002136 74 49 3.0 7.0 0.00 0.00 0.00 57 1015.4
20210616001636 74 10 2.0 7.0 0.00 0.00 0.00 58 1015.3
20210616001138 74 354 3.0 7.0 0.00 0.00 0.00 56 1015.3
20210616000632 74 48 3.0 6.0 0.00 0.00 0.00 56 1015.3
20210616000131 74 340 4.0 10.0 0.00 0.00 0.00 56 1015.3
20210615235631 74 11 4.0 10.0 0.00 0.00 0.00 56 1015.3
20210615235131 75 350 2.0 7.0 0.00 0.00 0.00 56 1015.2
20210615234631 75 25 4.0 7.0 0.00 0.00 0.00 56 1015.3
20210615234131 75 28 2.0 6.0 0.00 0.00 0.00 56 1015.1
20210615233630 75 4 4.0 9.0 0.00 0.00 0.00 57 1015.2
20210615233132 74 0 4.0 9.0 0.00 0.00 0.00 57 1015.3
20210615232631 74 343 4.0 9.0 0.00 0.00 0.00 59 1015.3
20210615232130 73 347 3.0 9.0 0.00 0.00 0.00 58 1015.3
20210615231630 74 30 4.0 9.0 0.00 0.00 0.00 57 1015.3
20210615231132 74 355 3.0 7.0 0.00 0.00 0.00 54 1015.3
20210615230631 74 16 4.0 10.0 0.00 0.00 0.00 54 1015.1
20210615230132 74 28 4.0 10.0 0.00 0.00 0.00 54 1015.1
20210615225631 74 329 4.0 9.0 0.00 0.00 0.00 54 1015.1
20210615225130 75 25 4.0 9.0 0.00 0.00 0.00 54 1015.1
20210615224631 75 28 4.0 13.0 0.00 0.00 0.00 53 1015.2
20210615224132 76 343 7.0 13.0 0.00 0.00 0.00 52 1015.1
20210615223632 76 32 5.0 10.0 0.00 0.00 0.00 53 1015.1
20210615223131 75 44 4.0 11.0 0.00 0.00 0.00 54 1015.2
20210615222630 75 313 3.0 11.0 0.00 0.00 0.00 54 1015.1
20210615222132 75 38 3.0 16.0 0.00 0.00 0.00 54 1015.1
20210615221631 75 237 6.0 16.0 0.00 0.00 0.00 52 1015.1
20210615221132 75 340 6.0 15.0 0.00 0.00 0.00 52 1015.2
20210615220630 76 337 6.0 16.0 0.00 0.00 0.00 52 1015.2
20210615220131 76 296 7.0 16.0 0.00 0.00 0.00 52 1015.3
20210615215632 76 296 3.0 9.0 0.00 0.00 0.00 53 1015.1
20210615215132 76 11 4.0 9.0 0.00 0.00 0.00 52 1015.2
20210615214632 76 338 4.0 9.0 0.00 0.00 0.00 54 1015.1
20210615214131 75 14 4.0 9.0 0.00 0.00 0.00 54 1015.2
20210615213631 75 0 3.0 9.0 0.00 0.00 0.00 53 1015.2
20210615213124 75 72 2.0 9.0 0.00 0.00 0.00 54 1015.2
20210615212626 76 0 3.0 9.0 0.00 0.00 0.00 53 1015.2
20210615212123 76 0 3.0 9.0 0.00 0.00 0.00 53 1015.2
20210615211618 76 3 5.0 11.0 0.00 0.00 0.00 53 1015.1
20210615211120 76 44 4.0 13.0 0.00 0.00 0.00 53 1015.2
20210615210618 76 25 6.0 13.0 0.00 0.00 0.00 52 1015.2
20210615210118 76 345 6.0 11.0 0.00 0.00 0.00 52 1015.1
20210615205616 76 20 5.0 11.0 0.00 0.00 0.00 50 1015.1
20210615205116 77 0 6.0 11.0 0.00 0.00 0.00 49 1015.0
20210615204617 78 337 3.0 11.0 0.00 0.00 0.00 51 1015.0
20210615204114 78 324 6.0 11.0 0.00 0.00 0.00 49 1015.0
20210615203614 78 355 4.0 13.0 0.00 0.00 0.00 49 1015.0
20210615203116 78 330 6.0 13.0 0.00 0.00 0.00 48 1015.1
20210615202613 78 20 4.0 9.0 0.00 0.00 0.00 49 1015.1
20210615202113 78 288 4.0 9.0 0.00 0.00 0.00 51 1015.1
20210615201613 78 244 4.0 10.0 0.00 0.00 0.00 50 1015.1
20210615201112 77 8 4.0 10.0 0.00 0.00 0.00 51 1015.2
20210615200610 77 30 4.0 14.0 0.00 0.00 0.00 49 1015.3
20210615200108 77 326 5.0 14.0 0.00 0.00 0.00 49 1015.3
20210615195607 78 320 6.0 12.0 0.00 0.00 0.00 48 1015.3
20210615195108 78 27 7.0 12.0 0.00 0.00 0.00 48 1015.3
20210615194610 78 254 4.0 12.0 0.00 0.00 0.00 50 1015.3
20210615194108 77 44 2.0 12.0 0.00 0.00 0.00 50 1015.2
20210615193606 77 4 6.0 10.0 0.00 0.00 0.00 50 1015.4
20210615193106 77 21 5.0 10.0 0.00 0.00 0.00 49 1015.4
20210615192606 77 317 4.0 11.0 0.00 0.00 0.00 51 1015.4
20210615192104 76 14 5.0 13.0 0.00 0.00 0.00 53 1015.5
20210615191602 76 16 7.0 13.0 0.00 0.00 0.00 51 1015.5
20210615191103 76 324 4.0 12.0 0.00 0.00 0.00 52 1015.6
20210615190604 76 324 4.0 14.0 0.00 0.00 0.00 53 1015.6
20210615190102 76 353 6.0 16.0 0.00 0.00 0.00 51 1015.5
20210615185601 76 8 4.0 16.0 0.00 0.00 0.00 51 1015.6
20210615185103 76 351 7.0 12.0 0.00 0.00 0.00 49 1015.6
20210615184602 78 16 7.0 12.0 0.00 0.00 0.00 50 1015.5
20210615184102 77 348 4.0 12.0 0.00 0.00 0.00 51 1015.6
20210615183601 76 344 4.0 12.0 0.00 0.00 0.00 53 1015.6
20210615183102 76 42 4.0 13.0 0.00 0.00 0.00 50 1015.6
20210615182603 76 347 4.0 13.0 0.00 0.00 0.00 50 1015.8
20210615182102 76 51 4.0 14.0 0.00 0.00 0.00 52 1015.8
20210615181603 76 11 4.0 14.0 0.00 0.00 0.00 51 1015.9
20210615181102 77 31 7.0 14.0 0.00 0.00 0.00 48 1015.9
20210615180602 77 355 7.0 14.0 0.00 0.00 0.00 47 1015.9
20210615180103 76 18 8.0 14.0 0.00 0.00 0.00 50 1015.8
20210615175602 77 10 6.0 11.0 0.00 0.00 0.00 49 1015.9
20210615175102 77 326 3.0 13.0 0.00 0.00 0.00 50 1015.9
20210615174603 76 71 5.0 13.0 0.00 0.00 0.00 52 1015.8
20210615174102 76 14 5.0 13.0 0.00 0.00 0.00 51 1015.9
20210615173602 76 32 7.0 15.0 0.00 0.00 0.00 51 1015.8
20210615173102 75 329 5.0 15.0 0.00 0.00 0.00 51 1015.8
20210615172604 76 13 8.0 15.0 0.00 0.00 0.00 50 1015.9
20210615172103 76 290 6.0 15.0 0.00 0.00 0.00 52 1016.0
20210615171601 76 333 6.0 15.0 0.00 0.00 0.00 50 1016.0
20210615171102 76 86 5.0 12.0 0.00 0.00 0.00 52 1016.0
20210615170605 77 305 6.0 12.0 0.00 0.00 0.00 49 1016.0
20210615170102 77 336 6.0 16.0 0.00 0.00 0.00 50 1015.9
20210615165603 77 290 7.0 16.0 0.00 0.00 0.00 49 1015.9
20210615165101 76 283 6.0 13.0 0.00 0.00 0.00 51 1015.9
20210615164603 76 341 6.0 12.0 0.00 0.00 0.00 53 1016.0
20210615164102 76 16 8.0 16.0 0.00 0.00 0.00 51 1016.0
20210615163601 76 3 3.0 16.0 0.00 0.00 0.00 55 1015.9
20210615163102 76 41 6.0 12.0 0.00 0.00 0.00 53 1015.9
20210615162605 76 341 5.0 14.0 0.00 0.00 0.00 55 1016.0
20210615162103 75 11 5.0 14.0 0.00 0.00 0.00 54 1015.9
20210615161602 74 334 6.0 14.0 0.00 0.00 0.00 54 1015.9
20210615161102 75 355 8.0 15.0 0.00 0.00 0.00 54 1016.0
20210615160602 74 21 7.0 20.0 0.00 0.00 0.00 55 1016.1
20210615160104 75 354 7.0 20.0 0.00 0.00 0.00 54 1016.1
20210615155603 75 7 6.0 13.0 0.00 0.00 0.00 53 1016.2
20210615155102 75 299 4.0 11.0 0.00 0.00 0.00 54 1016.2
20210615154603 74 275 4.0 9.0 0.00 0.00 0.00 56 1016.1
20210615154103 75 300 3.0 9.0 0.00 0.00 0.00 57 1016.1
20210615153602 74 265 4.0 10.0 0.00 0.00 0.00 57 1016.1
20210615153103 75 340 4.0 11.0 0.00 0.00 0.00 56 1016.1
20210615152603 74 286 4.0 13.0 0.00 0.00 0.00 60 1016.1
20210615152102 74 13 7.0 13.0 0.00 0.00 0.00 58 1016.0
20210615151603 74 1 6.0 11.0 0.00 0.00 0.00 57 1016.0
20210615151102 74 330 5.0 14.0 0.00 0.00 0.00 61 1015.9
20210615150602 73 3 4.0 14.0 0.00 0.00 0.00 61 1016.0
20210615150102 73 30 5.0 13.0 0.00 0.00 0.00 59 1015.9
20210615145602 73 35 4.0 12.0 0.00 0.00 0.00 61 1016.0
20210615145102 73 66 6.0 12.0 0.00 0.00 0.00 60 1016.0
20210615144602 73 17 5.0 11.0 0.00 0.00 0.00 60 1016.0
20210615144101 73 299 4.0 11.0 0.00 0.00 0.00 61 1016.0
20210615143600 73 20 4.0 11.0 0.00 0.00 0.00 62 1016.0
20210615143100 73 312 2.0 7.0 0.00 0.00 0.00 63 1016.0
20210615142602 72 292 3.0 7.0 0.00 0.00 0.00 62 1016.1
20210615142058 72 16 4.0 10.0 0.00 0.00 0.00 62 1016.1
20210615141558 72 357 2.0 10.0 0.00 0.00 0.00 63 1016.2
20210615141059 72 11 4.0 9.0 0.00 0.00 0.00 62 1016.1
20210615140557 71 1 2.0 10.0 0.00 0.00 0.00 64 1016.2
20210615140056 71 282 3.0 10.0 0.00 0.00 0.00 63 1016.2
20210615135554 71 321 4.0 10.0 0.00 0.00 0.00 63 1016.2
20210615135053 70 330 4.0 10.0 0.00 0.00 0.00 64 1016.2
20210615134553 70 345 4.0 10.0 0.00 0.00 0.00 64 1016.1
20210615134053 70 7 4.0 10.0 0.00 0.00 0.00 64 1016.2
20210615133556 70 338 5.0 10.0 0.00 0.00 0.00 63 1016.1
20210615133053 70 344 3.0 10.0 0.00 0.00 0.00 66 1016.2
20210615132553 69 320 2.0 10.0 0.00 0.00 0.00 68 1016.1
20210615132053 69 329 3.0 9.0 0.00 0.00 0.00 66 1016.0
20210615131552 69 25 3.0 13.0 0.00 0.00 0.00 69 1016.0
20210615131052 68 34 5.0 11.0 0.00 0.00 0.00 70 1015.9
20210615130553 68 336 3.0 9.0 0.00 0.00 0.00 71 1016.0
20210615130052 68 314 5.0 9.0 0.00 0.00 0.00 71 1016.0
20210615125553 67 14 4.0 9.0 0.00 0.00 0.00 71 1015.9
20210615125052 67 39 3.0 6.0 0.00 0.00 0.00 72 1015.8
20210615124552 67 275 1.0 7.0 0.00 0.00 0.00 74 1015.8
20210615124052 66 298 3.0 9.0 0.00 0.00 0.00 74 1015.8
20210615123552 66 303 4.0 9.0 0.00 0.00 0.00 75 1015.6
20210615123053 66 324 3.0 7.0 0.00 0.00 0.00 76 1015.6
20210615122552 66 337 2.0 4.0 0.00 0.00 0.00 78 1015.6
20210615122051 65 16 1.0 7.0 0.00 0.00 0.00 79 1015.4
20210615121551 65 4 4.0 7.0 0.00 0.00 0.00 79 1015.5
20210615121053 65 302 3.0 5.0 0.00 0.00 0.00 79 1015.5
20210615120551 64 330 1.0 5.0 0.00 0.00 0.00 81 1015.5
20210615120051 64 275 1.0 5.0 0.00 0.00 0.00 82 1015.4
20210615115551 63 350 2.0 5.0 0.00 0.00 0.00 82 1015.5
20210615115052 63 20 3.0 5.0 0.00 0.00 0.00 83 1015.5
20210615114551 62 341 2.0 5.0 0.00 0.00 0.00 84 1015.6
20210615114052 62 317 2.0 5.0 0.00 0.00 0.00 85 1015.6
20210615113551 62 345 3.0 4.0 0.00 0.00 0.00 86 1015.5
20210615113053 61 340 0.0 4.0 0.00 0.00 0.00 88 1015.5
20210615112551 60 268 1.0 4.0 0.00 0.00 0.00 89 1015.4
20210615112051 60 279 0.0 3.0 0.00 0.00 0.00 90 1015.3
20210615111550 59 309 1.0 3.0 0.00 0.00 0.00 91 1015.3
20210615111051 59 351 1.0 3.0 0.00 0.00 0.00 92 1015.2
20210615110550 58 295 1.0 3.0 0.00 0.00 0.00 92 1015.1
20210615110052 58 314 0.0 2.0 0.00 0.00 0.00 93 1015.1
20210615105549 58 303 0.0 1.0 0.00 0.00 0.00 93 1015.0
20210615105049 57 307 0.0 0.0 0.00 0.00 0.00 93 1015.0
20210615104549 57 307 0.0 0.0 0.00 0.00 0.00 92 1014.9
20210615104050 57 307 0.0 0.0 0.00 0.00 0.00 92 1014.9
20210615103549 57 307 0.0 0.0 0.00 0.00 0.00 92 1014.8
20210615103049 57 307 0.0 0.0 0.00 0.00 0.00 92 1014.8
20210615102550 57 307 0.0 2.0 0.00 0.00 0.00 92 1014.8
20210615102049 57 307 0.0 2.0 0.00 0.00 0.00 92 1014.8
20210615101549 57 278 0.0 1.0 0.00 0.00 0.00 92 1014.8
20210615101048 57 278 0.0 1.0 0.00 0.00 0.00 92 1014.8
20210615100549 57 298 0.0 2.0 0.00 0.00 0.00 92 1014.8
20210615100048 57 285 0.0 3.0 0.00 0.00 0.00 93 1014.8
20210615095551 57 317 0.0 3.0 0.00 0.00 0.00 93 1014.7
20210615095048 57 293 0.0 3.0 0.00 0.00 0.00 93 1014.7
20210615094549 57 7 0.0 3.0 0.00 0.00 0.00 93 1014.7
20210615094048 56 302 0.0 1.0 0.00 0.00 0.00 92 1014.6
20210615093548 56 302 0.0 1.0 0.00 0.00 0.00 92 1014.7
20210615093049 56 302 0.0 1.0 0.00 0.00 0.00 92 1014.7
20210615092547 56 302 0.0 1.0 0.00 0.00 0.00 92 1014.7
20210615092048 56 302 0.0 1.0 0.00 0.00 0.00 92 1014.7
20210615091548 56 302 0.0 0.0 0.00 0.00 0.00 91 1014.7
20210615091047 56 302 0.0 0.0 0.00 0.00 0.00 91 1014.5
20210615090547 56 302 0.0 0.0 0.00 0.00 0.00 91 1014.6
20210615090048 57 302 0.0 0.0 0.00 0.00 0.00 91 1014.7
20210615085546 57 302 0.0 0.0 0.00 0.00 0.00 91 1014.7
20210615085047 57 302 0.0 0.0 0.00 0.00 0.00 91 1014.7
20210615084547 57 302 0.0 0.0 0.00 0.00 0.00 91 1014.6
20210615084046 57 302 0.0 0.0 0.00 0.00 0.00 90 1014.6
20210615083547 57 302 0.0 0.0 0.00 0.00 0.00 90 1014.7
20210615083046 57 302 0.0 0.0 0.00 0.00 0.00 90 1014.7
20210615082547 57 302 0.0 1.0 0.00 0.00 0.00 90 1014.6
20210615082046 58 302 0.0 1.0 0.00 0.00 0.00 90 1014.6
20210615081546 58 302 0.0 0.0 0.00 0.00 0.00 90 1014.5
20210615081046 58 302 0.0 1.0 0.00 0.00 0.00 90 1014.6
20210615080547 58 302 0.0 0.0 0.00 0.00 0.00 89 1014.7
20210615080047 58 302 0.0 0.0 0.00 0.00 0.00 89 1014.7
20210615075546 58 302 0.0 0.0 0.00 0.00 0.00 90 1014.7
20210615075046 58 302 0.0 1.0 0.00 0.00 0.00 89 1014.7
20210615074546 59 302 0.0 1.0 0.00 0.00 0.00 90 1014.7
20210615074045 59 302 0.0 1.0 0.00 0.00 0.00 89 1014.8
20210615073545 59 302 0.0 1.0 0.00 0.00 0.00 89 1014.9
20210615073045 59 302 0.0 1.0 0.00 0.00 0.00 89 1014.8
20210615072546 59 302 0.0 1.0 0.00 0.00 0.00 88 1014.8
20210615072046 59 302 0.0 1.0 0.00 0.00 0.00 88 1014.6
20210615071546 59 302 0.0 0.0 0.00 0.00 0.00 87 1014.6
20210615071044 59 302 0.0 0.0 0.00 0.00 0.00 87 1014.7
20210615070544 60 302 0.0 1.0 0.00 0.00 0.00 86 1014.6
20210615070045 60 302 0.0 1.0 0.00 0.00 0.00 86 1014.6
20210615065544 60 302 0.0 1.0 0.00 0.00 0.00 86 1014.5
20210615065044 60 302 0.0 1.0 0.00 0.00 0.00 86 1014.6
20210615064817 60 302 0.0 1.0 0.00 0.00 0.00 86 1014.6
20210615064044 60 302 0.0 1.0 0.00 0.00 0.00 85 1014.6
20210615063543 61 316 0.0 1.0 0.00 0.00 0.00 85 1014.5
20210615063045 61 316 0.0 0.0 0.00 0.00 0.00 84 1014.4
20210615062545 61 316 0.0 1.0 0.00 0.00 0.00 83 1014.5
20210615062044 61 316 0.0 1.0 0.00 0.00 0.00 83 1014.5
20210615061543 62 316 0.0 1.0 0.00 0.00 0.00 82 1014.4
20210615061043 62 316 0.0 0.0 0.00 0.00 0.00 81 1014.4
20210615060546 62 316 0.0 1.0 0.00 0.00 0.00 81 1014.3
20210615060043 62 316 0.0 2.0 0.00 0.00 0.00 80 1014.3
20210615055543 62 316 0.0 2.0 0.00 0.00 0.00 80 1014.3
20210615055042 63 341 0.0 2.0 0.00 0.00 0.00 80 1014.2
20210615054543 63 319 1.0 2.0 0.00 0.00 0.00 79 1014.2
20210615054042 63 350 0.0 1.0 0.00 0.00 0.00 79 1014.2
20210615053542 63 353 0.0 2.0 0.00 0.00 0.00 79 1014.2
20210615053044 63 357 1.0 2.0 0.00 0.00 0.00 78 1014.1
20210615052544 64 323 1.0 3.0 0.00 0.00 0.00 78 1014.0
20210615052041 64 17 0.0 6.0 0.00 0.00 0.00 78 1014.1
20210615051542 64 6 2.0 6.0 0.00 0.00 0.00 78 1014.0
20210615051042 64 58 1.0 4.0 0.00 0.00 0.00 78 1014.0
20210615050541 64 333 2.0 5.0 0.00 0.00 0.00 77 1013.9
20210615050042 64 6 1.0 6.0 0.00 0.00 0.00 77 1013.9
20210615045540 64 34 3.0 6.0 0.00 0.00 0.00 77 1013.8
20210615045042 64 16 1.0 4.0 0.00 0.00 0.00 77 1013.9
20210615044541 64 3 2.0 6.0 0.00 0.00 0.00 76 1013.8
20210615044043 64 56 2.0 10.0 0.00 0.00 0.00 76 1014.0
20210615043541 64 358 3.0 10.0 0.00 0.00 0.00 76 1014.0
20210615043041 64 25 3.0 10.0 0.00 0.00 0.00 75 1014.0
20210615042543 64 47 4.0 11.0 0.00 0.00 0.00 75 1013.9
20210615042041 65 321 3.0 11.0 0.00 0.00 0.00 74 1014.0
20210615041539 65 3 4.0 11.0 0.00 0.00 0.00 74 1013.9
20210615041040 65 27 4.0 11.0 0.00 0.00 0.00 73 1013.9
20210615040540 65 21 5.0 11.0 0.00 0.00 0.00 73 1013.9
20210615040040 65 41 4.0 11.0 0.00 0.00 0.00 73 1013.9
20210615035541 65 288 6.0 13.0 0.00 0.00 0.00 72 1013.7
20210615035042 66 24 5.0 15.0 0.00 0.00 0.00 72 1013.7
20210615034540 65 59 7.0 15.0 0.00 0.00 0.00 72 1013.7
20210615034039 65 8 7.0 14.0 0.00 0.00 0.00 72 1013.7
20210615033540 65 341 4.0 11.0 0.00 0.00 0.00 71 1013.7
20210615033039 66 18 5.0 13.0 0.00 0.00 0.00 71 1013.8
20210615032539 66 35 5.0 15.0 0.00 0.00 0.00 71 1013.7
20210615032040 66 39 6.0 23.0 0.00 0.00 0.00 70 1013.8
20210615031539 67 330 11.0 23.0 0.00 0.00 0.00 70 1013.8
20210615031039 67 316 7.0 16.0 0.00 0.00 0.00 70 1013.8
20210615030539 67 14 6.0 16.0 0.00 0.00 0.00 69 1013.7
20210615030039 68 347 9.0 16.0 0.00 0.00 0.00 68 1013.6
20210615025538 68 341 8.0 20.0 0.00 0.00 0.00 67 1013.4
20210615025037 69 32 7.0 20.0 0.00 0.00 0.00 66 1013.4
20210615024540 69 336 7.0 19.0 0.00 0.00 0.00 65 1013.1
20210615024040 68 14 7.0 11.0 0.00 0.00 0.00 69 1012.7
20210615023538 68 0 0.0 0.0 0.00 0.00 0.00 69 1012.1
20210615023038 68 0 0.0 0.0 0.00 0.00 0.00 68 1012.0
20210615022540 68 0 0.0 0.0 0.00 0.00 0.00 67 1011.9
20210615022038 69 0 0.0 0.0 0.00 0.00 0.00 67 1011.8
20210615021538 69 0 0.0 0.0 0.00 0.00 0.00 66 1011.8
20210615021038 70 0 0.0 0.0 0.00 0.00 0.00 64 1011.7
20210615020537 70 0 0.0 0.0 0.00 0.00 0.00 63 1011.7
20210615020037 71 0 0.0 0.0 0.00 0.00 0.00 62 1011.6
20210615015537 71 0 0.0 0.0 0.00 0.00 0.00 62 1011.6
20210615015037 72 0 0.0 0.0 0.00 0.00 0.00 61 1011.5
20210615014534 72 0 0.0 1.0 0.00 0.00 0.00 60 1011.5
20210615014032 73 0 0.0 1.0 0.00 0.00 0.00 60 1011.4
20210615013530 73 0 0.0 2.0 0.00 0.00 0.00 59 1011.4
20210615013032 74 0 0.0 2.0 0.00 0.00 0.00 58 1011.3